Find Starlink 32467

NORAD ID: 61713 Int'l Des: 2024-196 Owner: SPXS Country: US Constellation: starlink operational
LEOCIRCULAR

現在のビュー

3D地球を読み込み中...

About Starlink 32467

Starlink 32467 (NORAD 61713) is a starlink constellation satellite (v2 mini) launched Oct 30, 2024 by SPXS of US. It operates in LEO, CIRCULAR orbit with a mass of 730.00 kg.

次回通過

Passes for default location (London). Set your location on the main map for personalized predictions.

高度履歴

Loading altitude history...

軌道要素

1 61713U 24196G 26235.74440153 .00000186 00000-0 16630-4 0 9991
2 61713 53.1613 43.2506 0001241 92.7658 267.3486 15.34391619102768
Epoch: Aug 23, 2026 • Age: 15 hours

現在のステータス

高度 471.3 km
遠地点 / 近地点 N/A
速度 7.63 km/s
衛星直下点 -27.06°S, 95.03°W
打ち上げ日 Oct 30, 2024
運用期間 1.8 years
タイプ internet

技術仕様

分類 Payload
質量 730.00 kg
乾燥質量 700.00 kg
総質量 730.00 kg
長さ 0.30 m
直径 4.10 m
スパン 29.00 m
形状 Box + pan
製造者 SPXS
バスタイプ Starlink V2M
フェーズステータス In Orbit
所有者/国 SPXS/US

Most Searched